RYR8CN LROP-EGCC

Flight info

Callsign RYR8CN
Flight time 3h 9m
Altitude 37000
Route SOKR1K SOKRU DCT OXDOC DCT IRLOX DCT GANNA DCT PATAK DCT ODNEM DCT KILNU DCT KATCE DCT RAVLO Y70 OTBED OTBE1M
Aircraft B738/M-V/N

Departure

Time 2026-05-06 11:08
Airport Bucharest Henri Coandă International Airport (LROP)

Arrival

Time 2026-05-06 14:17
Airport Manchester Airport (EGCC)
Time Latitude Longitude Altitude Speed Heading
2026-05-06 10:34 44.56871 26.09006 327 ft 0 kts 174°
2026-05-06 10:53 44.56892 26.09004 323 ft 4 kts 177°
2026-05-06 10:53 44.56919 26.09004 324 ft 4 kts 187°
2026-05-06 10:54 44.56944 26.09013 325 ft 4 kts 217°
2026-05-06 10:54 44.56955 26.09031 323 ft 0 kts 264°
2026-05-06 11:04 44.56954 26.09021 327 ft 3 kts 264°
2026-05-06 11:04 44.56948 26.08941 323 ft 13 kts 264°
2026-05-06 11:04 44.56935 26.08782 326 ft 18 kts 264°
2026-05-06 11:05 44.56921 26.08614 324 ft 17 kts 265°
2026-05-06 11:05 44.57004 26.08531 326 ft 16 kts 355°
2026-05-06 11:05 44.57023 26.08529 325 ft 16 kts 354°
2026-05-06 11:05 44.57111 26.08516 324 ft 11 kts 354°
2026-05-06 11:06 44.57200 26.08503 326 ft 15 kts 354°
2026-05-06 11:06 44.57321 26.08485 325 ft 19 kts 354°
2026-05-06 11:06 44.57449 26.08466 326 ft 18 kts 354°
2026-05-06 11:06 44.57573 26.08447 325 ft 18 kts 354°
2026-05-06 11:07 44.57672 26.08480 324 ft 16 kts 78°
2026-05-06 11:07 44.57679 26.08629 324 ft 15 kts 84°
2026-05-06 11:07 44.57698 26.08876 320 ft 52 kts 84°
2026-05-06 11:07 44.57761 26.09709 322 ft 117 kts 84°
2026-05-06 11:08 44.57856 26.11110 320 ft 170 kts 86°
2026-05-06 11:08 44.57996 26.12873 784 ft 185 kts 84°
2026-05-06 11:08 44.58160 26.14660 1714 ft 182 kts 85°
2026-05-06 11:08 44.58326 26.16402 2639 ft 178 kts 83°
2026-05-06 11:09 44.58474 26.18136 3405 ft 183 kts 83°
2026-05-06 11:09 44.58636 26.20026 3718 ft 208 kts 73°
2026-05-06 11:09 44.59477 26.21733 4026 ft 225 kts 33°
2026-05-06 11:09 44.60996 26.22349 4520 ft 237 kts
2026-05-06 11:10 44.62640 26.21795 4850 ft 258 kts 331°
2026-05-06 11:10 44.64006 26.20109 5615 ft 266 kts 313°
2026-05-06 11:10 44.65155 26.18067 6481 ft 269 kts 310°
2026-05-06 11:10 44.66282 26.15940 7227 ft 274 kts 310°
2026-05-06 11:11 44.67424 26.13781 7992 ft 277 kts 310°
2026-05-06 11:11 44.68577 26.11581 8773 ft 281 kts 310°
2026-05-06 11:11 44.69744 26.09362 9571 ft 284 kts 310°
2026-05-06 11:11 44.70930 26.07117 10270 ft 288 kts 310°
2026-05-06 11:12 44.72172 26.04781 10518 ft 310 kts 310°
2026-05-06 11:12 44.73514 26.02270 10702 ft 332 kts 310°
2026-05-06 11:12 44.74942 25.99596 10969 ft 350 kts 310°
2026-05-06 11:12 44.76417 25.96827 11558 ft 356 kts 310°
2026-05-06 11:13 44.77906 25.94030 12290 ft 358 kts 310°
2026-05-06 11:13 44.79407 25.91209 13002 ft 362 kts 310°
2026-05-06 11:13 44.80923 25.88361 13662 ft 366 kts 310°
2026-05-06 11:13 44.82461 25.85476 14274 ft 370 kts 310°
2026-05-06 11:14 44.84013 25.82564 14894 ft 373 kts 310°
2026-05-06 11:14 44.85574 25.79627 15536 ft 376 kts 310°
2026-05-06 11:14 44.87149 25.76666 16149 ft 379 kts 310°
2026-05-06 11:14 44.88738 25.73677 16751 ft 382 kts 310°
2026-05-06 11:15 44.90336 25.70666 17343 ft 386 kts 309°
2026-05-06 11:15 44.91951 25.67620 17945 ft 389 kts 309°
2026-05-06 11:15 44.93577 25.64548 18493 ft 392 kts 309°
2026-05-06 11:15 44.95216 25.61449 18988 ft 395 kts 309°
2026-05-06 11:16 44.96864 25.58329 19512 ft 397 kts 309°
2026-05-06 11:16 44.98521 25.55191 20029 ft 400 kts 309°
2026-05-06 11:16 45.00186 25.52034 20536 ft 403 kts 309°
2026-05-06 11:16 45.01864 25.48846 21013 ft 405 kts 309°
2026-05-06 11:17 45.03550 25.45640 21496 ft 408 kts 309°
2026-05-06 11:17 45.05247 25.42411 21983 ft 410 kts 309°
2026-05-06 11:17 45.06953 25.39161 22441 ft 413 kts 309°
2026-05-06 11:17 45.08671 25.35884 22907 ft 416 kts 309°
2026-05-06 11:18 45.10396 25.32592 23395 ft 418 kts 308°
2026-05-06 11:18 45.12134 25.29269 23804 ft 421 kts 308°
2026-05-06 11:18 45.13879 25.25927 24162 ft 423 kts 308°
2026-05-06 11:18 45.15632 25.22568 24557 ft 425 kts 308°
2026-05-06 11:19 45.17388 25.19197 24941 ft 426 kts 308°
2026-05-06 11:19 45.19151 25.15810 25297 ft 428 kts 308°
2026-05-06 11:19 45.20922 25.12406 25648 ft 430 kts 308°
2026-05-06 11:19 45.22674 25.09032 25997 ft 432 kts 308°
2026-05-06 11:20 45.24458 25.05594 26357 ft 433 kts 308°
2026-05-06 11:20 45.26247 25.02141 26707 ft 435 kts 308°
2026-05-06 11:20 45.28041 24.98675 27041 ft 437 kts 308°
2026-05-06 11:20 45.29844 24.95187 27372 ft 439 kts 308°
2026-05-06 11:21 45.31650 24.91689 27698 ft 440 kts 308°
2026-05-06 11:21 45.33465 24.88168 27992 ft 442 kts 308°
2026-05-06 11:21 45.35282 24.84638 28294 ft 444 kts 308°
2026-05-06 11:21 45.37106 24.81093 28607 ft 445 kts 308°
2026-05-06 11:22 45.38935 24.77532 28898 ft 447 kts 308°
2026-05-06 11:22 45.40770 24.73955 29197 ft 448 kts 308°
2026-05-06 11:22 45.42600 24.70383 29640 ft 445 kts 308°
2026-05-06 11:22 45.44416 24.66831 30107 ft 442 kts 308°
2026-05-06 11:23 45.46224 24.63294 30439 ft 441 kts 308°
2026-05-06 11:23 45.47417 24.60957 30637 ft 441 kts 308°
2026-05-06 11:23 45.49239 24.57385 30984 ft 438 kts 308°
2026-05-06 11:23 45.51003 24.53922 31301 ft 437 kts 308°
2026-05-06 11:24 45.52788 24.50414 31575 ft 437 kts 308°
2026-05-06 11:24 45.54569 24.46908 31887 ft 436 kts 308°
2026-05-06 11:24 45.56342 24.43415 32184 ft 434 kts 308°
2026-05-06 11:24 45.58110 24.39928 32453 ft 433 kts 308°
2026-05-06 11:25 45.59875 24.36443 32764 ft 432 kts 308°
2026-05-06 11:25 45.61634 24.32964 33082 ft 431 kts 308°
2026-05-06 11:25 45.63383 24.29502 33407 ft 429 kts 308°
2026-05-06 11:25 45.65127 24.26045 33688 ft 429 kts 307°
2026-05-06 11:26 45.66868 24.22589 33951 ft 428 kts 307°
2026-05-06 11:26 45.68605 24.19137 34199 ft 427 kts 307°
2026-05-06 11:26 45.70336 24.15694 34425 ft 426 kts 307°
2026-05-06 11:26 45.72067 24.12246 34610 ft 427 kts 307°
2026-05-06 11:27 45.73800 24.08789 34790 ft 427 kts 307°
2026-05-06 11:27 45.75530 24.05335 34999 ft 427 kts 307°
2026-05-06 11:27 45.77255 24.01885 35213 ft 426 kts 307°
2026-05-06 11:27 45.78979 23.98434 35396 ft 426 kts 307°
2026-05-06 11:28 45.80702 23.94982 35596 ft 425 kts 307°
2026-05-06 11:28 45.82421 23.91532 35752 ft 426 kts 307°
2026-05-06 11:28 45.84140 23.88078 35945 ft 425 kts 306°
2026-05-06 11:29 45.87586 23.81142 35981 ft 427 kts 306°
2026-05-06 11:29 45.90999 23.74256 35971 ft 424 kts 306°
2026-05-06 11:30 45.94406 23.67365 35962 ft 422 kts 306°
2026-05-06 11:30 45.97786 23.60509 35968 ft 419 kts 306°
2026-05-06 11:31 46.01148 23.53676 35966 ft 418 kts 306°
2026-05-06 11:31 46.04502 23.46842 35973 ft 418 kts 306°
2026-05-06 11:32 46.07860 23.39985 35977 ft 419 kts 306°
2026-05-06 11:32 46.11221 23.33104 35981 ft 421 kts 305°
2026-05-06 11:33 46.14593 23.26182 35983 ft 423 kts 305°
2026-05-06 11:33 46.17978 23.19215 35978 ft 425 kts 305°
2026-05-06 11:34 46.21372 23.12214 35984 ft 426 kts 305°
2026-05-06 11:34 46.24768 23.05192 35987 ft 427 kts 305°
2026-05-06 11:35 46.28168 22.98144 35988 ft 427 kts 305°
2026-05-06 11:35 46.31562 22.91091 35992 ft 427 kts 305°
2026-05-06 11:36 46.34948 22.84034 35989 ft 427 kts 304°
2026-05-06 11:36 46.38324 22.76984 35983 ft 425 kts 304°
2026-05-06 11:37 46.41661 22.69995 35982 ft 424 kts 304°
2026-05-06 11:37 46.45006 22.62972 36001 ft 423 kts 304°
2026-05-06 11:38 46.48340 22.55956 35986 ft 422 kts 304°
2026-05-06 11:38 46.51666 22.48938 35992 ft 421 kts 304°
2026-05-06 11:39 46.54983 22.41921 35982 ft 421 kts 304°
2026-05-06 11:39 46.58287 22.34914 35987 ft 420 kts 303°
2026-05-06 11:40 46.61586 22.27900 35981 ft 420 kts 303°
2026-05-06 11:40 46.64875 22.20890 35986 ft 419 kts 303°
2026-05-06 11:41 46.68160 22.13872 35983 ft 420 kts 303°
2026-05-06 11:41 46.71459 22.06850 35976 ft 420 kts 304°
2026-05-06 11:42 46.74841 21.99888 35986 ft 420 kts 304°
2026-05-06 11:42 46.78233 21.92939 35989 ft 421 kts 304°
2026-05-06 11:43 46.81623 21.85957 35982 ft 422 kts 303°
2026-05-06 11:43 46.85004 21.78956 35992 ft 422 kts 303°
2026-05-06 11:44 46.90073 21.68417 35983 ft 423 kts 303°
2026-05-06 11:44 46.93449 21.61374 35983 ft 423 kts 303°
2026-05-06 11:45 46.96824 21.54316 35977 ft 423 kts 303°
2026-05-06 11:45 47.00196 21.47249 35969 ft 423 kts 303°
2026-05-06 11:46 47.03540 21.40221 35961 ft 423 kts 303°
2026-05-06 11:46 47.06899 21.33142 35958 ft 422 kts 302°
2026-05-06 11:47 47.10248 21.26067 35951 ft 422 kts 302°
2026-05-06 11:47 47.13586 21.18996 35949 ft 421 kts 302°
2026-05-06 11:48 47.16914 21.11932 35949 ft 420 kts 301°
2026-05-06 11:48 47.20228 21.04876 35944 ft 419 kts 301°
2026-05-06 11:49 47.23536 20.97817 35941 ft 419 kts 301°
2026-05-06 11:49 47.26833 20.90761 35937 ft 418 kts 301°
2026-05-06 11:50 47.30125 20.83699 35937 ft 418 kts 301°
2026-05-06 11:50 47.33414 20.76625 35933 ft 419 kts 301°
2026-05-06 11:51 47.36703 20.69532 35933 ft 419 kts 301°
2026-05-06 11:51 47.39996 20.62414 35928 ft 420 kts 301°
2026-05-06 11:52 47.43290 20.55273 35933 ft 421 kts 301°
2026-05-06 11:52 47.46588 20.48107 35925 ft 422 kts 301°
2026-05-06 11:53 47.49891 20.40911 35927 ft 423 kts 300°
2026-05-06 11:53 47.53190 20.33703 35930 ft 424 kts 300°
2026-05-06 11:54 47.56493 20.26470 35926 ft 424 kts 300°
2026-05-06 11:54 47.59777 20.19256 35929 ft 425 kts 300°
2026-05-06 11:55 47.63102 20.11936 35925 ft 425 kts 300°
2026-05-06 11:55 47.66403 20.04648 35926 ft 426 kts 300°
2026-05-06 11:56 47.69701 19.97348 35927 ft 426 kts 300°
2026-05-06 11:56 47.72971 19.90091 35931 ft 426 kts 300°
2026-05-06 11:57 47.76280 19.82727 35920 ft 426 kts 300°
2026-05-06 11:57 47.79538 19.75457 35926 ft 425 kts 300°
2026-05-06 11:58 47.82813 19.68129 35929 ft 425 kts 300°
2026-05-06 11:58 47.86085 19.60787 35919 ft 425 kts 300°
2026-05-06 11:59 47.89353 19.53437 35928 ft 425 kts 300°
2026-05-06 11:59 47.92617 19.46072 35922 ft 426 kts 300°
2026-05-06 12:00 47.95875 19.38703 35916 ft 426 kts 299°
2026-05-06 12:00 47.99127 19.31329 35913 ft 425 kts 299°
2026-05-06 12:01 48.02353 19.23992 35915 ft 425 kts 299°
2026-05-06 12:01 48.05567 19.16665 35905 ft 425 kts 299°
2026-05-06 12:02 48.08778 19.09241 35916 ft 424 kts 298°
2026-05-06 12:02 48.11870 19.01721 35912 ft 424 kts 297°
2026-05-06 12:03 48.14923 18.94220 35905 ft 425 kts 297°
2026-05-06 12:03 48.17999 18.86675 35903 ft 424 kts 297°
2026-05-06 12:04 48.21079 18.79126 35906 ft 425 kts 297°
2026-05-06 12:04 48.24158 18.71563 35897 ft 425 kts 297°
2026-05-06 12:05 48.27238 18.63980 35894 ft 425 kts 297°
2026-05-06 12:05 48.30311 18.56391 35890 ft 425 kts 297°
2026-05-06 12:06 48.33379 18.48793 35889 ft 425 kts 297°
2026-05-06 12:06 48.36444 18.41181 35894 ft 426 kts 297°
2026-05-06 12:07 48.39504 18.33559 35887 ft 426 kts 297°
2026-05-06 12:07 48.42560 18.25926 35880 ft 426 kts 296°
2026-05-06 12:08 48.45609 18.18289 35871 ft 425 kts 297°
2026-05-06 12:08 48.48630 18.10698 35869 ft 425 kts 296°
2026-05-06 12:09 48.51667 18.03048 35867 ft 425 kts 296°
2026-05-06 12:09 48.54695 17.95397 35859 ft 424 kts 296°
2026-05-06 12:10 48.57716 17.87743 35852 ft 424 kts 296°
2026-05-06 12:10 48.60727 17.80092 35862 ft 423 kts 296°
2026-05-06 12:11 48.63223 17.73731 35859 ft 423 kts 296°
2026-05-06 12:11 48.66221 17.66071 35857 ft 423 kts 296°
2026-05-06 12:12 48.69214 17.58403 35858 ft 423 kts 296°
2026-05-06 12:12 48.72201 17.50728 35854 ft 423 kts 295°
2026-05-06 12:13 48.75185 17.43037 35843 ft 423 kts 295°
2026-05-06 12:13 48.78164 17.35339 35835 ft 423 kts 295°
2026-05-06 12:14 48.81136 17.27634 35838 ft 423 kts 295°
2026-05-06 12:14 48.84108 17.19911 35834 ft 424 kts 295°
2026-05-06 12:15 48.87106 17.12260 35818 ft 425 kts 296°
2026-05-06 12:15 48.90252 17.04663 35825 ft 425 kts 297°
2026-05-06 12:16 48.93410 16.97062 35824 ft 425 kts 296°
2026-05-06 12:16 48.96553 16.89431 35827 ft 426 kts 296°
2026-05-06 12:17 48.99689 16.81763 35837 ft 427 kts 296°
2026-05-06 12:17 49.02821 16.74071 35835 ft 428 kts 296°
2026-05-06 12:18 49.05959 16.66341 35836 ft 429 kts 296°
2026-05-06 12:18 49.09099 16.58587 35834 ft 430 kts 296°
2026-05-06 12:19 49.12237 16.50816 35836 ft 430 kts 296°
2026-05-06 12:19 49.15371 16.43030 35833 ft 430 kts 296°
2026-05-06 12:20 49.18495 16.35248 35828 ft 430 kts 295°
2026-05-06 12:20 49.21614 16.27455 35836 ft 429 kts 295°
2026-05-06 12:21 49.24727 16.19652 35827 ft 429 kts 295°
2026-05-06 12:21 49.27832 16.11848 35830 ft 429 kts 295°
2026-05-06 12:22 49.30930 16.04039 35828 ft 428 kts 295°
2026-05-06 12:22 49.34019 15.96227 35827 ft 428 kts 295°
2026-05-06 12:23 49.37096 15.88425 35820 ft 427 kts 295°
2026-05-06 12:23 49.40165 15.80620 35818 ft 427 kts 295°
2026-05-06 12:24 49.43225 15.72811 35815 ft 427 kts 295°
2026-05-06 12:24 49.46264 15.65036 35813 ft 427 kts 295°
2026-05-06 12:25 49.49321 15.57188 35815 ft 428 kts 295°
2026-05-06 12:25 49.52375 15.49328 35813 ft 428 kts 295°
2026-05-06 12:26 49.55430 15.41441 35817 ft 429 kts 295°
2026-05-06 12:26 49.58486 15.33526 35816 ft 430 kts 295°
2026-05-06 12:27 49.61542 15.25591 35824 ft 431 kts 295°
2026-05-06 12:27 49.64599 15.17626 35817 ft 432 kts 295°
2026-05-06 12:28 49.67653 15.09646 35818 ft 432 kts 295°
2026-05-06 12:28 49.70705 15.01646 35808 ft 432 kts 294°
2026-05-06 12:29 49.73753 14.93633 35813 ft 432 kts 294°
2026-05-06 12:29 49.76792 14.85621 35810 ft 432 kts 294°
2026-05-06 12:30 49.79826 14.77595 35803 ft 432 kts 294°
2026-05-06 12:30 49.82849 14.69574 35810 ft 431 kts 294°
2026-05-06 12:31 49.85862 14.61554 35806 ft 430 kts 294°
2026-05-06 12:31 49.88862 14.53544 35806 ft 430 kts 294°
2026-05-06 12:32 49.91856 14.45525 35810 ft 429 kts 294°
2026-05-06 12:32 49.94822 14.37558 35807 ft 429 kts 294°
2026-05-06 12:33 49.97803 14.29524 35805 ft 429 kts 294°
2026-05-06 12:33 50.00779 14.21480 35804 ft 429 kts 294°
2026-05-06 12:34 50.03751 14.13420 35807 ft 430 kts 294°
2026-05-06 12:34 50.06721 14.05341 35801 ft 430 kts 294°
2026-05-06 12:35 50.09686 13.97252 35806 ft 430 kts 294°
2026-05-06 12:35 50.12650 13.89139 35800 ft 431 kts 294°
2026-05-06 12:36 50.15614 13.80998 35797 ft 432 kts 294°
2026-05-06 12:36 50.18579 13.72831 35792 ft 433 kts 294°
2026-05-06 12:37 50.21546 13.64633 35792 ft 434 kts 294°
2026-05-06 12:37 50.24511 13.56414 35779 ft 434 kts 294°
2026-05-06 12:38 50.27472 13.48179 35773 ft 435 kts 294°
2026-05-06 12:38 50.30428 13.39935 35779 ft 435 kts 294°
2026-05-06 12:39 50.33378 13.31678 35792 ft 434 kts 294°
2026-05-06 12:39 50.36299 13.23475 35785 ft 434 kts 294°
2026-05-06 12:40 50.39231 13.15214 35789 ft 434 kts 294°
2026-05-06 12:40 50.42155 13.06949 35784 ft 433 kts 294°
2026-05-06 12:41 50.45071 12.98681 35785 ft 433 kts 294°
2026-05-06 12:41 50.47978 12.90409 35785 ft 432 kts 293°
2026-05-06 12:42 50.50705 12.82017 35785 ft 431 kts 291°
2026-05-06 12:42 50.53337 12.73559 35774 ft 431 kts 290°
2026-05-06 12:43 50.55976 12.65093 35776 ft 432 kts 291°
2026-05-06 12:43 50.58632 12.56612 35768 ft 432 kts 291°
2026-05-06 12:44 50.61292 12.48119 35766 ft 433 kts 291°
2026-05-06 12:44 50.63947 12.39616 35770 ft 433 kts 291°
2026-05-06 12:45 50.66599 12.31094 35765 ft 433 kts 290°
2026-05-06 12:46 50.70569 12.18277 35766 ft 434 kts 290°
2026-05-06 12:46 50.73210 12.09714 35761 ft 434 kts 290°
2026-05-06 12:47 50.75846 12.01137 35762 ft 434 kts 290°
2026-05-06 12:47 50.78477 11.92547 35766 ft 434 kts 290°
2026-05-06 12:48 50.81105 11.83934 35772 ft 435 kts 290°
2026-05-06 12:48 50.83726 11.75316 35773 ft 435 kts 290°
2026-05-06 12:49 50.86342 11.66681 35760 ft 435 kts 290°
2026-05-06 12:49 50.88935 11.58093 35772 ft 435 kts 290°
2026-05-06 12:50 50.91539 11.49439 35767 ft 435 kts 290°
2026-05-06 12:50 50.94136 11.40777 35767 ft 435 kts 290°
2026-05-06 12:51 50.96730 11.32092 35769 ft 436 kts 290°
2026-05-06 12:51 50.99317 11.23400 35778 ft 436 kts 290°
2026-05-06 12:52 51.01898 11.14696 35778 ft 436 kts 290°
2026-05-06 12:52 51.04478 11.05965 35779 ft 436 kts 290°
2026-05-06 12:53 51.07052 10.97221 35775 ft 437 kts 290°
2026-05-06 12:53 51.09621 10.88466 35779 ft 437 kts 290°
2026-05-06 12:54 51.12184 10.79694 35771 ft 437 kts 290°
2026-05-06 12:54 51.14741 10.70915 35771 ft 437 kts 290°
2026-05-06 12:55 51.17294 10.62116 35767 ft 438 kts 290°
2026-05-06 12:55 51.19842 10.53296 35764 ft 438 kts 290°
2026-05-06 12:56 51.22390 10.44452 35772 ft 439 kts 290°
2026-05-06 12:56 51.24503 10.37092 35760 ft 440 kts 290°
2026-05-06 12:57 51.26993 10.28182 35771 ft 439 kts 289°
2026-05-06 12:57 51.29791 10.17749 35766 ft 440 kts 289°
2026-05-06 12:58 51.31805 10.10204 35760 ft 441 kts 289°
2026-05-06 12:58 51.34214 10.01187 35767 ft 441 kts 289°
2026-05-06 12:59 51.36624 9.92155 35770 ft 441 kts 289°
2026-05-06 12:59 51.39012 9.83177 35773 ft 442 kts 289°
2026-05-06 13:00 51.41428 9.74057 35782 ft 442 kts 289°
2026-05-06 13:00 51.43809 9.65030 35782 ft 443 kts 289°
2026-05-06 13:01 51.46198 9.55942 35767 ft 443 kts 289°
2026-05-06 13:01 51.48580 9.46839 35776 ft 442 kts 289°
2026-05-06 13:02 51.50949 9.37755 35775 ft 441 kts 289°
2026-05-06 13:02 51.53307 9.28670 35775 ft 441 kts 289°
2026-05-06 13:03 51.55658 9.19580 35778 ft 440 kts 289°
2026-05-06 13:03 51.57999 9.10490 35777 ft 440 kts 289°
2026-05-06 13:04 51.60330 9.01405 35796 ft 439 kts 289°
2026-05-06 13:04 51.62655 8.92303 35806 ft 440 kts 289°
2026-05-06 13:05 51.64974 8.83187 35806 ft 440 kts 289°
2026-05-06 13:05 51.67287 8.74061 35803 ft 440 kts 289°
2026-05-06 13:06 51.68939 8.67518 35804 ft 440 kts 289°
2026-05-06 13:06 51.71160 8.58693 35802 ft 440 kts 289°
2026-05-06 13:07 51.73453 8.49548 35797 ft 440 kts 289°
2026-05-06 13:07 51.75735 8.40404 35807 ft 439 kts 289°
2026-05-06 13:08 51.78012 8.31243 35808 ft 440 kts 289°
2026-05-06 13:08 51.80288 8.22052 35810 ft 440 kts 289°
2026-05-06 13:09 51.82557 8.12848 35807 ft 441 kts 289°
2026-05-06 13:09 51.84821 8.03626 35818 ft 441 kts 289°
2026-05-06 13:10 51.87077 7.94401 35824 ft 441 kts 289°
2026-05-06 13:10 51.89325 7.85163 35839 ft 441 kts 289°
2026-05-06 13:11 51.91572 7.75893 35836 ft 444 kts 289°
2026-05-06 13:11 51.93823 7.66570 35842 ft 444 kts 289°
2026-05-06 13:12 51.96061 7.57263 35848 ft 443 kts 289°
2026-05-06 13:12 51.98289 7.47953 35848 ft 442 kts 289°
2026-05-06 13:13 52.00505 7.38653 35853 ft 442 kts 289°
2026-05-06 13:13 52.02713 7.29351 35847 ft 441 kts 289°
2026-05-06 13:14 52.04909 7.20054 35858 ft 443 kts 288°
2026-05-06 13:14 52.07113 7.10684 35849 ft 443 kts 288°
2026-05-06 13:15 52.09291 7.01389 35872 ft 443 kts 288°
2026-05-06 13:15 52.11472 6.92035 35866 ft 442 kts 288°
2026-05-06 13:16 52.13642 6.82689 35869 ft 441 kts 288°
2026-05-06 13:16 52.15806 6.73328 35874 ft 441 kts 288°
2026-05-06 13:17 52.17958 6.63980 35883 ft 442 kts 288°
2026-05-06 13:17 52.20107 6.54599 35880 ft 442 kts 288°
2026-05-06 13:18 52.22248 6.45216 35881 ft 441 kts 288°
2026-05-06 13:18 52.24380 6.35827 35889 ft 441 kts 288°
2026-05-06 13:19 52.26505 6.26429 35880 ft 442 kts 288°
2026-05-06 13:19 52.28627 6.17005 35884 ft 442 kts 288°
2026-05-06 13:20 52.30741 6.07571 35882 ft 443 kts 288°
2026-05-06 13:20 52.32854 5.98099 35881 ft 443 kts 288°
2026-05-06 13:21 52.34960 5.88613 35881 ft 444 kts 288°
2026-05-06 13:21 52.37060 5.79117 35886 ft 444 kts 288°
2026-05-06 13:22 52.39151 5.69614 35894 ft 444 kts 288°
2026-05-06 13:22 52.41238 5.60087 35882 ft 444 kts 288°
2026-05-06 13:23 52.43315 5.50558 35882 ft 444 kts 287°
2026-05-06 13:23 52.45385 5.41023 35891 ft 443 kts 287°
2026-05-06 13:24 52.47427 5.31567 35885 ft 442 kts 287°
2026-05-06 13:24 52.49471 5.22061 35883 ft 441 kts 287°
2026-05-06 13:25 52.51504 5.12565 35887 ft 440 kts 287°
2026-05-06 13:25 52.53524 5.03082 35885 ft 439 kts 287°
2026-05-06 13:26 52.55531 4.93616 35892 ft 438 kts 287°
2026-05-06 13:26 52.57528 4.84153 35891 ft 438 kts 287°
2026-05-06 13:27 52.59514 4.74693 35898 ft 437 kts 287°
2026-05-06 13:27 52.61492 4.65236 35894 ft 437 kts 287°
2026-05-06 13:28 52.63461 4.55771 35909 ft 437 kts 287°
2026-05-06 13:28 52.65423 4.46299 35917 ft 437 kts 286°
2026-05-06 13:29 52.67380 4.36802 35915 ft 437 kts 286°
2026-05-06 13:29 52.69327 4.27306 35919 ft 438 kts 286°
2026-05-06 13:30 52.71270 4.17791 35920 ft 438 kts 286°
2026-05-06 13:30 52.73205 4.08265 35930 ft 438 kts 286°
2026-05-06 13:31 52.75131 3.98739 35932 ft 438 kts 286°
2026-05-06 13:31 52.77049 3.89206 35935 ft 437 kts 286°
2026-05-06 13:32 52.78958 3.79670 35940 ft 437 kts 286°
2026-05-06 13:32 52.80858 3.70136 35946 ft 436 kts 286°
2026-05-06 13:33 52.81767 3.65558 35950 ft 436 kts 286°
2026-05-06 13:33 52.82814 3.60270 35955 ft 435 kts 286°
2026-05-06 13:34 52.84690 3.50764 35952 ft 434 kts 286°
2026-05-06 13:34 52.86552 3.41274 35956 ft 433 kts 286°
2026-05-06 13:35 52.88404 3.31791 35959 ft 433 kts 286°
2026-05-06 13:35 52.90250 3.22303 35959 ft 432 kts 286°
2026-05-06 13:36 52.92023 3.12799 35957 ft 431 kts 282°
2026-05-06 13:36 52.93341 3.03123 35964 ft 430 kts 280°
2026-05-06 13:37 52.94557 2.93412 35963 ft 430 kts 280°
2026-05-06 13:37 52.95796 2.83695 35968 ft 431 kts 280°
2026-05-06 13:38 52.97052 2.73969 35970 ft 431 kts 280°
2026-05-06 13:38 52.98308 2.64229 35972 ft 432 kts 280°
2026-05-06 13:39 52.99556 2.54484 35976 ft 432 kts 280°
2026-05-06 13:39 53.00797 2.44719 35978 ft 432 kts 280°
2026-05-06 13:40 53.02031 2.34941 35981 ft 433 kts 280°
2026-05-06 13:40 53.03250 2.25208 35979 ft 433 kts 280°
2026-05-06 13:41 53.04470 2.15412 35983 ft 433 kts 280°
2026-05-06 13:41 53.05486 2.07198 35983 ft 433 kts 280°
2026-05-06 13:42 53.06692 1.97392 35984 ft 433 kts 280°
2026-05-06 13:42 53.07891 1.87584 35989 ft 432 kts 280°
2026-05-06 13:43 53.09080 1.77795 35990 ft 431 kts 280°
2026-05-06 13:43 53.10251 1.68077 35989 ft 431 kts 280°
2026-05-06 13:44 53.11419 1.58311 35989 ft 430 kts 279°
2026-05-06 13:44 53.12576 1.48564 35990 ft 429 kts 279°
2026-05-06 13:45 53.13723 1.38832 35989 ft 428 kts 279°
2026-05-06 13:45 53.15423 1.24271 35992 ft 426 kts 279°
2026-05-06 13:46 53.16545 1.14571 35991 ft 426 kts 279°
2026-05-06 13:46 53.17658 1.04883 35993 ft 425 kts 279°
2026-05-06 13:47 53.18762 0.95188 35834 ft 429 kts 279°
2026-05-06 13:47 53.19316 0.90294 35572 ft 428 kts 279°
2026-05-06 13:47 53.19864 0.85446 35326 ft 423 kts 279°
2026-05-06 13:48 53.20403 0.80657 35078 ft 417 kts 279°
2026-05-06 13:48 53.20931 0.75938 34829 ft 412 kts 279°
2026-05-06 13:48 53.21454 0.71252 34592 ft 410 kts 279°
2026-05-06 13:48 53.21973 0.66590 34363 ft 407 kts 279°
2026-05-06 13:49 53.22486 0.61962 34133 ft 405 kts 278°
2026-05-06 13:49 53.22992 0.57373 33794 ft 400 kts 278°
2026-05-06 13:49 53.23492 0.52832 33415 ft 395 kts 278°
2026-05-06 13:49 53.23979 0.48400 33017 ft 392 kts 278°
2026-05-06 13:50 53.24466 0.43945 32619 ft 388 kts 278°
2026-05-06 13:50 53.24945 0.39532 32232 ft 384 kts 278°
2026-05-06 13:50 53.25415 0.35158 31836 ft 381 kts 278°
2026-05-06 13:50 53.25879 0.30823 31454 ft 378 kts 278°
2026-05-06 13:51 53.26340 0.26504 31086 ft 376 kts 278°
2026-05-06 13:51 53.26795 0.22224 30709 ft 374 kts 278°
2026-05-06 13:51 53.27246 0.17967 30335 ft 371 kts 278°
2026-05-06 13:51 53.27694 0.13738 29943 ft 369 kts 278°
2026-05-06 13:52 53.28137 0.09533 29520 ft 366 kts 278°
2026-05-06 13:52 53.28575 0.05369 29145 ft 362 kts 278°
2026-05-06 13:52 53.29250 0.01334 28713 ft 362 kts 292°
2026-05-06 13:52 53.30331 -0.02442 28360 ft 359 kts 294°
2026-05-06 13:53 53.31456 -0.06197 27952 ft 364 kts 294°
2026-05-06 13:53 53.32603 -0.10009 27538 ft 369 kts 294°
2026-05-06 13:53 53.33754 -0.13859 27126 ft 371 kts 294°
2026-05-06 13:53 53.34898 -0.17718 26713 ft 369 kts 294°
2026-05-06 13:54 53.36028 -0.21563 26312 ft 367 kts 294°
2026-05-06 13:54 53.37146 -0.25390 25904 ft 364 kts 294°
2026-05-06 13:54 53.38253 -0.29193 25511 ft 363 kts 294°
2026-05-06 13:54 53.39354 -0.32990 25110 ft 362 kts 294°
2026-05-06 13:55 53.40446 -0.36768 24701 ft 360 kts 294°
2026-05-06 13:55 53.41534 -0.40539 24318 ft 358 kts 294°
2026-05-06 13:55 53.42614 -0.44284 23927 ft 356 kts 294°
2026-05-06 13:55 53.43686 -0.48012 23525 ft 354 kts 294°
2026-05-06 13:56 53.44752 -0.51723 23062 ft 352 kts 294°
2026-05-06 13:56 53.45808 -0.55404 22644 ft 349 kts 294°
2026-05-06 13:56 53.46855 -0.59059 22268 ft 345 kts 294°
2026-05-06 13:56 53.47890 -0.62680 21880 ft 343 kts 294°
2026-05-06 13:57 53.48916 -0.66273 21487 ft 340 kts 294°
2026-05-06 13:57 53.49934 -0.69845 21106 ft 338 kts 294°
2026-05-06 13:57 53.50943 -0.73390 20726 ft 335 kts 294°
2026-05-06 13:57 53.51945 -0.76919 20353 ft 333 kts 294°
2026-05-06 13:58 53.52939 -0.80421 19987 ft 331 kts 295°
2026-05-06 13:58 53.53927 -0.83908 19626 ft 329 kts 295°
2026-05-06 13:58 53.54907 -0.87374 19267 ft 327 kts 295°
2026-05-06 13:58 53.55882 -0.90825 18906 ft 326 kts 295°
2026-05-06 13:59 53.56850 -0.94258 18544 ft 324 kts 295°
2026-05-06 13:59 53.57815 -0.97682 18171 ft 323 kts 295°
2026-05-06 13:59 53.58774 -1.01089 17768 ft 321 kts 295°
2026-05-06 13:59 53.59725 -1.04475 17395 ft 319 kts 295°
2026-05-06 14:00 53.60664 -1.07845 17028 ft 317 kts 293°
2026-05-06 14:00 53.61363 -1.11315 16849 ft 309 kts 285°
2026-05-06 14:00 53.61855 -1.14796 16672 ft 304 kts 283°
2026-05-06 14:00 53.62290 -1.18232 16500 ft 302 kts 282°
2026-05-06 14:01 53.62727 -1.21709 16331 ft 308 kts 282°
2026-05-06 14:01 53.63158 -1.25316 16145 ft 312 kts 277°
2026-05-06 14:01 53.63066 -1.28972 15928 ft 313 kts 263°
2026-05-06 14:01 53.62706 -1.32548 15662 ft 313 kts 261°
2026-05-06 14:02 53.62298 -1.36145 15353 ft 312 kts 261°
2026-05-06 14:02 53.61883 -1.39708 15060 ft 309 kts 260°
2026-05-06 14:02 53.61466 -1.43246 14735 ft 307 kts 260°
2026-05-06 14:02 53.61046 -1.46768 14356 ft 307 kts 260°
2026-05-06 14:03 53.60422 -1.50213 13913 ft 311 kts 244°
2026-05-06 14:03 53.59254 -1.53270 13352 ft 310 kts 237°
2026-05-06 14:03 53.57988 -1.56179 12821 ft 306 kts 236°
2026-05-06 14:03 53.56717 -1.59037 12283 ft 303 kts 235°
2026-05-06 14:04 53.55454 -1.61862 11753 ft 301 kts 235°
2026-05-06 14:04 53.54201 -1.64659 11264 ft 298 kts 235°
2026-05-06 14:04 53.52963 -1.67417 10807 ft 293 kts 235°
2026-05-06 14:04 53.51745 -1.70131 10427 ft 287 kts 235°
2026-05-06 14:05 53.50558 -1.72769 10129 ft 279 kts 235°
2026-05-06 14:05 53.49394 -1.75355 9837 ft 277 kts 235°
2026-05-06 14:05 53.48236 -1.77930 9514 ft 276 kts 235°
2026-05-06 14:05 53.47079 -1.80504 9194 ft 276 kts 235°
2026-05-06 14:06 53.45929 -1.83070 8876 ft 275 kts 235°
2026-05-06 14:06 53.44786 -1.85622 8623 ft 272 kts 234°
2026-05-06 14:06 53.43658 -1.88146 8358 ft 269 kts 235°
2026-05-06 14:06 53.42536 -1.90654 8108 ft 268 kts 235°
2026-05-06 14:07 53.41420 -1.93152 7854 ft 268 kts 235°
2026-05-06 14:07 53.40307 -1.95648 7599 ft 267 kts 235°
2026-05-06 14:07 53.39198 -1.98138 7381 ft 266 kts 235°
2026-05-06 14:07 53.38098 -2.00608 7174 ft 264 kts 235°
2026-05-06 14:08 53.37005 -2.03066 6975 ft 262 kts 235°
2026-05-06 14:08 53.35916 -2.05515 6781 ft 263 kts 235°
2026-05-06 14:08 53.34821 -2.07983 6586 ft 265 kts 235°
2026-05-06 14:08 53.33720 -2.10465 6393 ft 266 kts 235°
2026-05-06 14:09 53.32614 -2.12961 6109 ft 270 kts 235°
2026-05-06 14:09 53.31489 -2.15518 5626 ft 275 kts 234°
2026-05-06 14:09 53.30366 -2.18103 5157 ft 274 kts 234°
2026-05-06 14:09 53.29259 -2.20693 4710 ft 273 kts 234°
2026-05-06 14:10 53.28175 -2.23256 4334 ft 268 kts 234°
2026-05-06 14:10 53.27116 -2.25776 4030 ft 260 kts 235°
2026-05-06 14:10 53.26112 -2.28174 3993 ft 246 kts 235°
2026-05-06 14:10 53.25154 -2.30462 3974 ft 235 kts 235°
2026-05-06 14:11 53.24236 -2.32652 3993 ft 229 kts 235°
2026-05-06 14:11 53.23316 -2.34839 3988 ft 231 kts 235°
2026-05-06 14:11 53.22395 -2.37030 3997 ft 231 kts 235°
2026-05-06 14:11 53.21473 -2.39213 3990 ft 228 kts 234°
2026-05-06 14:12 53.20568 -2.41358 3992 ft 224 kts 235°
2026-05-06 14:12 53.19670 -2.43493 3743 ft 227 kts 235°
2026-05-06 14:12 53.18787 -2.45653 3469 ft 224 kts 242°
2026-05-06 14:12 53.18463 -2.48123 3166 ft 217 kts 278°
2026-05-06 14:13 53.19033 -2.50341 3065 ft 208 kts 316°
2026-05-06 14:13 53.20270 -2.51571 3042 ft 210 kts 349°
2026-05-06 14:13 53.21681 -2.51525 3009 ft 199 kts 10°
2026-05-06 14:13 53.23007 -2.51004 2956 ft 194 kts 32°
2026-05-06 14:14 53.23966 -2.49579 2977 ft 181 kts 45°
2026-05-06 14:14 53.24860 -2.48125 2879 ft 180 kts 45°
2026-05-06 14:14 53.25722 -2.46562 2625 ft 185 kts 50°
2026-05-06 14:14 53.26546 -2.44890 2373 ft 188 kts 51°
2026-05-06 14:15 53.27358 -2.43199 2137 ft 185 kts 51°
2026-05-06 14:15 53.28157 -2.41538 1853 ft 179 kts 51°
2026-05-06 14:15 53.28908 -2.39964 1608 ft 169 kts 52°
2026-05-06 14:15 53.29620 -2.38466 1390 ft 161 kts 52°
2026-05-06 14:16 53.30305 -2.37072 1205 ft 153 kts 51°
2026-05-06 14:16 53.30971 -2.35690 990 ft 151 kts 52°
2026-05-06 14:16 53.31620 -2.34326 810 ft 151 kts 50°
2026-05-06 14:16 53.32287 -2.32945 584 ft 153 kts 51°
2026-05-06 14:17 53.32954 -2.31563 326 ft 151 kts 50°
2026-05-06 14:17 53.33604 -2.30223 208 ft 142 kts 50°
2026-05-06 14:17 53.34116 -2.29169 220 ft 86 kts 51°
2026-05-06 14:17 53.34374 -2.28638 220 ft 47 kts 50°
2026-05-06 14:18 53.34525 -2.28342 225 ft 24 kts 42°
2026-05-06 14:18 53.34659 -2.28196 228 ft 23 kts 25°
2026-05-06 14:18 53.34804 -2.28103 230 ft 22 kts 22°
2026-05-06 14:18 53.34925 -2.27960 231 ft 21 kts 50°
2026-05-06 14:19 53.35018 -2.27770 234 ft 21 kts 51°
2026-05-06 14:19 53.35107 -2.27585 235 ft 20 kts 51°
2026-05-06 14:19 53.35193 -2.27405 237 ft 20 kts 51°
2026-05-06 14:19 53.35273 -2.27241 238 ft 16 kts 48°
2026-05-06 14:20 53.35339 -2.27190 239 ft 2 kts
2026-05-06 14:20 53.35366 -2.27195 240 ft 5 kts 347°
2026-05-06 14:21 53.35399 -2.27225 240 ft 7 kts 323°
2026-05-06 14:21 53.35453 -2.27296 241 ft 12 kts 321°
2026-05-06 14:21 53.35518 -2.27383 240 ft 12 kts 321°
2026-05-06 14:21 53.35582 -2.27471 240 ft 12 kts 321°
2026-05-06 14:22 53.35620 -2.27521 240 ft 1 kts 321°
2026-05-06 14:22 53.35621 -2.27523 240 ft 0 kts 321°
2026-05-06 14:22 53.35630 -2.27534 240 ft 3 kts 328°
2026-05-06 14:22 53.35665 -2.27544 240 ft 7 kts
2026-05-06 14:23 53.35712 -2.27478 241 ft 11 kts 50°
2026-05-06 14:23 53.35766 -2.27369 242 ft 12 kts 51°
2026-05-06 14:23 53.35818 -2.27259 243 ft 12 kts 57°
2026-05-06 14:23 53.35890 -2.27227 244 ft 12 kts 353°
2026-05-06 14:24 53.35943 -2.27238 244 ft 11 kts 353°
2026-05-06 14:24 53.36003 -2.27242 245 ft 5 kts
2026-05-06 14:24 53.36029 -2.27215 245 ft 5 kts 54°
2026-05-06 14:24 53.36043 -2.27168 246 ft 5 kts 68°
2026-05-06 14:25 53.36050 -2.27137 246 ft 0 kts 71°